Total_Precipitation_Accumulation
3.01 3.47 3.24 2.86 2.86 2.95 3.21 3.61 3.87 3.42 3.00 2.90 2.89 2.96 3.08 3.12 3.31 3.01 2.73 2.65 2.37 2.14 2.06 2.06 2.10 2.04 1.96 1.93 2.01 2.18 2.36 2.53 2.78 3.11 3.47 3.91 4.38 4.90
3.05 3.16 3.09 2.82 2.89 2.97 3.19 3.47 3.80 3.73 3.20 2.86 3.06 3.11 3.01 2.77 3.12 2.97 2.70 2.62 2.31 2.10 1.92 1.86 1.89 1.99 2.04 2.00 1.93 1.97 2.02 2.08 2.12 2.27 2.45 2.61 2.87 3.32
3.00 2.94 2.90 3.12 3.18 3.01 3.19 3.36 3.63 3.89 3.59 3.06 3.14 3.15 3.10 2.92 2.89 2.76 2.61 2.54 2.33 2.28 2.03 1.89 1.81 1.80 1.85 1.90 1.97 2.00 1.99 1.94 1.90 1.94 2.06 2.19 2.27 2.39
3.07 3.27 3.15 3.34 3.38 3.30 3.48 3.50 3.62 3.93 3.83 3.46 3.28 3.30 3.19 3.06 2.99 2.74 2.36 2.22 2.21 2.40 2.20 2.03 1.90 1.86 1.81 1.82 1.84 1.79 1.77 1.78 1.76 1.71 1.74 1.79 1.90 2.09
2.85 3.13 3.40 3.88 3.73 3.56 3.45 3.35 3.40 3.50 3.78 3.49 3.18 3.35 3.17 3.04 3.03 2.67 2.39 2.34 1.97 2.06 2.09 1.93 1.78 1.65 1.58 1.59 1.67 1.69 1.62 1.60 1.59 1.61 1.65 1.70 1.74 1.82
2.72 2.83 2.99 3.31 3.48 3.63 3.40 3.30 3.42 3.52 3.64 3.53 3.40 3.57 3.62 3.46 3.25 2.86 2.67 2.53 2.23 1.89 1.96 1.84 1.72 1.62 1.54 1.48 1.48 1.54 1.62 1.66 1.68 1.66 1.69 1.76 1.82 1.87
2.81 2.73 2.55 2.69 2.91 3.11 2.92 3.25 3.49 3.44 3.48 3.52 3.61 3.94 3.91 3.74 3.22 2.94 2.82 2.71 2.40 2.04 2.01 1.77 1.67 1.54 1.51 1.55 1.51 1.49 1.52 1.60 1.64 1.61 1.65 1.69 1.76 1.85
3.01 2.95 2.71 2.51 2.50 2.65 2.72 2.92 3.19 3.23 3.29 3.45 3.50 3.66 3.69 3.66 3.47 3.20 2.94 2.76 2.46 2.16 2.19 2.03 1.83 1.74 1.59 1.49 1.60 1.61 1.58 1.59 1.61 1.59 1.54 1.56 1.59 1.62
3.23 3.35 2.84 2.37 2.63 2.57 2.67 2.65 2.51 2.64 2.85 3.08 3.21 3.21 3.56 3.71 3.80 3.35 3.15 2.93 2.55 2.39 2.47 2.25 2.12 1.92 1.67 1.60 1.73 1.57 1.53 1.53 1.52 1.52 1.47 1.44 1.46 1.47
2.82 2.89 2.88 2.65 2.57 2.65 2.60 2.41 2.16 2.14 2.31 2.36 2.43 2.70 3.08 3.60 3.95 3.69 3.57 3.35 2.97 2.63 2.46 2.29 2.10 1.97 1.74 1.66 1.72 1.57 1.46 1.44 1.44 1.43 1.43 1.43 1.42 1.42
2.43 2.41 2.42 2.27 2.37 2.47 2.41 2.27 2.13 2.02 2.04 2.12 2.06 2.18 2.51 2.91 3.44 3.70 3.46 3.14 2.80 2.47 2.36 2.23 2.00 2.08 2.02 1.87 1.74 1.78 1.59 1.48 1.43 1.43 1.45 1.48 1.48 1.53
2.53 2.48 2.42 2.25 2.27 2.22 2.12 2.13 1.94 1.83 1.97 1.94 1.83 1.84 1.98 2.34 2.88 3.06 3.18 3.07 2.74 2.46 2.14 2.19 2.09 2.24 2.25 1.94 1.77 1.76 1.68 1.65 1.59 1.51 1.50 1.54 1.61 1.46
2.56 2.60 2.53 2.46 2.18 2.06 1.94 1.83 1.81 1.98 2.08 2.07 1.99 1.98 2.14 2.35 2.53 2.80 3.05 3.12 2.90 2.46 2.19 2.31 2.17 2.26 2.37 2.17 1.98 1.91 1.80 1.71 1.64 1.60 1.58 1.59 1.61 1.49
2.47 2.58 2.62 2.56 2.28 2.16 1.99 1.82 1.92 1.92 1.90 2.02 2.01 1.95 1.98 2.10 2.31 2.63 2.93 3.01 2.90 2.64 2.54 2.60 2.47 2.46 2.55 2.40 2.15 2.04 1.97 1.88 1.79 1.68 1.61 1.80 1.72 1.68
2.25 2.62 2.70 2.54 2.31 2.04 1.98 1.99 1.93 1.79 1.81 1.83 1.73 1.68 1.76 1.91 2.13 2.44 2.79 3.03 2.96 2.72 2.61 2.58 2.57 2.68 2.74 2.48 2.20 2.07 2.11 2.04 1.90 1.83 1.74 1.68 1.61 1.64
2.05 2.28 2.36 2.29 2.06 1.91 1.85 1.77 1.69 1.71 1.71 1.67 1.66 1.75 1.87 1.94 2.00 2.15 2.55 2.91 3.03 2.80 2.62 2.56 2.58 2.72 2.70 2.55 2.45 2.21 2.09 2.07 1.95 1.89 1.88 1.80 1.75 1.68
2.19 2.14 2.17 2.24 2.20 2.10 2.07 2.02 1.99 1.92 1.80 1.72 1.81 1.85 1.98 2.12 2.19 2.31 2.56 2.78 2.75 2.48 2.42 2.56 2.68 2.77 2.72 2.72 2.59 2.25 2.12 2.05 2.09 2.18 2.18 2.02 1.85 1.78
1.92 1.90 2.05 2.22 2.33 2.31 2.34 2.31 2.24 2.15 2.06 2.05 2.09 2.07 2.07 2.17 2.27 2.29 2.47 2.65 2.65 2.50 2.40 2.40 2.67 2.92 2.90 2.65 2.38 2.25 2.14 2.05 2.11 2.31 2.34 2.21 1.96 1.81
1.66 1.77 1.95 2.09 2.26 2.41 2.44 2.37 2.28 2.30 2.37 2.34 2.32 2.29 2.29 2.34 2.44 2.43 2.42 2.54 2.62 2.57 2.56 2.60 2.71 2.83 2.78 2.40 2.08 2.01 2.12 2.16 2.25 2.34 2.30 2.15 1.94 1.83
1.72 1.91 2.10 2.23 2.34 2.53 2.58 2.53 2.48 2.44 2.47 2.44 2.46 2.44 2.42 2.43 2.47 2.48 2.44 2.43 2.52 2.61 2.63 2.63 2.61 2.57 2.53 2.44 2.28 2.15 2.12 2.22 2.29 2.24 2.23 2.24 2.11 2.07
1.99 2.07 2.14 2.24 2.36 2.52 2.66 2.71 2.73 2.67 2.63 2.59 2.55 2.56 2.59 2.59 2.50 2.47 2.54 2.59 2.56 2.59 2.49 2.30 2.34 2.72 2.89 2.93 2.68 2.27 2.16 2.28 2.33 2.33 2.40 2.54 2.36 2.21
2.00 2.09 2.13 2.15 2.30 2.42 2.50 2.56 2.59 2.56 2.58 2.64 2.60 2.59 2.60 2.62 2.55 2.58 2.69 2.68 2.57 2.49 2.42 2.38 2.57 2.86 3.02 3.03 2.68 2.40 2.32 2.35 2.41 2.45 2.42 2.38 2.29 2.13
1.93 1.95 2.00 2.04 2.14 2.28 2.34 2.41 2.47 2.47 2.46 2.52 2.62 2.62 2.54 2.57 2.57 2.62 2.67 2.74 2.66 2.60 2.66 2.71 2.77 2.83 2.81 2.83 2.78 2.58 2.43 2.48 2.46 2.32 2.09 1.99 1.88 1.79